| time (UTC) | temp C | wind direction | speed KPH | gust KPH | rain 1hr cm | rain 24hr cm | rain mn cm | humidity % | barometer mb |
| 20260507171537 | 14 | 355 | 4.8 | 14.5 | 0.00 | 0.23 | 0.23 | 70 | |
| 20260507170517 | 14 | 348 | 6.4 | 16.1 | 0.00 | 0.23 | 0.23 | 70 | |
| 20260507165515 | 14 | 358 | 6.4 | 17.7 | 0.00 | 0.23 | 0.23 | 69 | |
| 20260507164515 | 15 | 350 | 4.8 | 12.9 | 0.00 | 0.23 | 0.23 | 67 | |
| 20260507163516 | 16 | 352 | 4.8 | 14.5 | 0.00 | 0.23 | 0.23 | 64 | |
| 20260507162517 | 16 | 2 | 3.2 | 11.3 | 0.00 | 0.23 | 0.23 | 64 | |
| 20260507161516 | 16 | 348 | 3.2 | 12.9 | 0.00 | 0.23 | 0.23 | 62 | |
| 20260507160517 | 16 | 4 | 1.6 | 9.7 | 0.00 | 0.23 | 0.23 | 62 | |
| 20260507155518 | 16 | 6 | 1.6 | 6.4 | 0.00 | 0.23 | 0.23 | 63 | |
| 20260507154555 | 16 | 360 | 1.6 | 8.0 | 0.00 | 0.23 | 0.23 | 63 | |
| 20260507153515 | 16 | 340 | 1.6 | 11.3 | 0.00 | 0.23 | 0.23 | 64 | |
| 20260507152516 | 17 | 0 | 3.2 | 9.7 | 0.00 | 0.23 | 0.23 | 63 | |
| 20260507151516 | 17 | 334 | 0.0 | 3.2 | 0.00 | 0.23 | 0.23 | 65 | |
| 20260507150516 | 16 | 12 | 1.6 | 11.3 | 0.00 | 0.23 | 0.23 | 65 | |
| 20260507145517 | 15 | 8 | 4.8 | 16.1 | 0.00 | 0.23 | 0.23 | 69 | |
| 20260507144517 | 15 | 6 | 3.2 | 11.3 | 0.00 | 0.23 | 0.23 | 69 | |
| 20260507143535 | 15 | 11 | 3.2 | 12.9 | 0.00 | 0.23 | 0.23 | 68 | |
| 20260507142516 | 16 | 10 | 3.2 | 12.9 | 0.00 | 0.23 | 0.23 | 68 | |
| 20260507141516 | 15 | 16 | 1.6 | 14.5 | 0.00 | 0.23 | 0.23 | 72 | |
| 20260507140516 | 15 | 323 | 1.6 | 6.4 | 0.00 | 0.23 | 0.23 | 70 | |
| 20260507135517 | 15 | 3 | 1.6 | 8.0 | 0.00 | 0.23 | 0.23 | 69 | |
| 20260507134517 | 15 | 7 | 1.6 | 8.0 | 0.00 | 0.23 | 0.23 | 71 | |
| 20260507133517 | 15 | 355 | 4.8 | 14.5 | 0.00 | 0.25 | 0.23 | 69 | |
| 20260507132515 | 15 | 24 | 1.6 | 8.0 | 0.00 | 0.25 | 0.23 | 71 | |
| 20260507131515 | 14 | 353 | 0.0 | 6.4 | 0.00 | 0.25 | 0.23 | 74 | |
| 20260507130516 | 14 | 358 | 1.6 | 4.8 | 0.00 | 0.25 | 0.23 | 71 | |
| 20260507125516 | 15 | 4 | 1.6 | 8.0 | 0.00 | 0.25 | 0.23 | 70 | |
| 20260507124517 | 16 | 12 | 1.6 | 8.0 | 0.00 | 0.25 | 0.23 | 71 | |
| 20260507123517 | 16 | 39 | 3.2 | 9.7 | 0.00 | 0.25 | 0.23 | 70 | |
| 20260507122517 | 15 | 355 | 0.0 | 3.2 | 0.00 | 0.25 | 0.23 | 71 | |
| 20260507121515 | 16 | 3 | 1.6 | 6.4 | 0.00 | 0.25 | 0.23 | 71 | |
| 20260507120516 | 16 | 135 | 1.6 | 9.7 | 0.00 | 0.25 | 0.23 | 71 | |
| 20260507115516 | 15 | 146 | 0.0 | 3.2 | 0.00 | 0.25 | 0.23 | 71 | |
| 20260507114516 | 15 | 195 | 1.6 | 9.7 | 0.00 | 0.33 | 0.23 | 72 | |
| 20260507113516 | 14 | 209 | 0.0 | 3.2 | 0.00 | 0.33 | 0.23 | 76 | |
| 20260507112517 | 14 | 231 | 0.0 | 3.2 | 0.00 | 0.33 | 0.23 | 77 | |
| 20260507111517 | 14 | 211 | 1.6 | 8.0 | 0.00 | 0.33 | 0.23 | 77 | |
| 20260507110535 | 15 | 210 | 1.6 | 6.4 | 0.00 | 0.33 | 0.23 | 75 | |
| 20260507105516 | 15 | 176 | 4.8 | 11.3 | 0.00 | 0.33 | 0.23 | 76 | |
| 20260507104516 | 15 | 220 | 1.6 | 4.8 | 0.00 | 0.33 | 0.23 | 77 | |
| 20260507103516 | 14 | 230 | 0.0 | 1.6 | 0.00 | 0.33 | 0.23 | 78 | |
| 20260507102516 | 15 | 155 | 3.2 | 11.3 | 0.00 | 0.33 | 0.23 | 79 | |
| 20260507101517 | 15 | 166 | 8.0 | 14.5 | 0.00 | 0.33 | 0.23 | 80 | |
| 20260507100517 | 14 | 164 | 0.0 | 3.2 | 0.00 | 0.33 | 0.23 | 85 | |
| 20260507095515 | 13 | 216 | 0.0 | 4.8 | 0.00 | 0.33 | 0.23 | 84 | |
| 20260507094515 | 12 | 154 | 0.0 | 3.2 | 0.00 | 0.33 | 0.23 | 87 | |
| 20260507093516 | 12 | 181 | 0.0 | 1.6 | 0.03 | 0.33 | 0.23 | 88 | |
| 20260507092516 | 11 | 216 | 0.0 | 1.6 | 0.03 | 0.33 | 0.23 | 89 | |
| 20260507091537 | 11 | 13 | 0.0 | 1.6 | 0.03 | 0.33 | 0.23 | 92 | |
| 20260507090517 | 11 | 0.0 | 0.0 | 0.03 | 0.33 | 0.23 | 92 | ||
| 20260507085517 | 11 | 5 | 0.0 | 1.6 | 0.03 | 0.33 | 0.23 | 90 | |
| 20260507084515 | 11 | 90 | 0.0 | 1.6 | 0.03 | 0.33 | 0.23 | 91 | |
| 20260507083515 | 10 | 0.0 | 0.0 | 0.00 | 0.30 | 0.23 | 91 | ||
| 20260507082516 | 10 | 148 | 0.0 | 3.2 | 0.00 | 0.30 | 0.23 | 93 | |
| 20260507081516 | 10 | 219 | 0.0 | 1.6 | 0.00 | 0.30 | 0.23 | 96 | |
| 20260507080516 | 9 | 0.0 | 0.0 | 0.00 | 0.30 | 0.23 | 97 | ||
| 20260507075537 | 8 | 189 | 1.6 | 3.2 | 0.00 | 0.30 | 0.23 | 96 | |
| 20260507074517 | 8 | 180 | 1.6 | 6.4 | 0.00 | 0.30 | 0.23 | 96 | |
| 20260507073515 | 8 | 191 | 1.6 | 3.2 | 0.00 | 0.30 | 0.23 | 95 | |
| 20260507072515 | 9 | 221 | 0.0 | 3.2 | 0.00 | 0.30 | 0.23 | 96 | |
| 20260507071516 | 8 | 0.0 | 0.0 | 0.00 | 0.30 | 0.23 | 97 | ||
| 20260507070516 | 8 | 181 | 0.0 | 3.2 | 0.00 | 0.30 | 0.23 | 98 | |
| 20260507065517 | 8 | 225 | 0.0 | 1.6 | 0.03 | 0.30 | 0.23 | 98 | |
| 20260507064517 | 8 | 199 | 1.6 | 1.6 | 0.03 | 0.30 | 0.23 | 99 | |
| 20260507063517 | 8 | 0.0 | 0.0 | 0.05 | 0.30 | 0.23 | 99 | ||
| 20260507062515 | 8 | 0.0 | 0.0 | 0.05 | 0.30 | 0.23 | 99 | ||
| 20260507061515 | 7 | 178 | 1.6 | 6.4 | 0.05 | 0.30 | 0.23 | 99 | |
| 20260507060517 | 7 | 0.0 | 0.0 | 0.05 | 0.30 | 0.23 | 99 | ||
| 20260507055517 | 7 | 137 | 0.0 | 1.6 | 0.05 | 0.28 | 0.20 | 99 | |
| 20260507054516 | 7 | 0.0 | 0.0 | 0.05 | 0.28 | 0.20 | 99 | ||
| 20260507053517 | 7 | 0.0 | 0.0 | 0.03 | 0.25 | 0.18 | 99 | ||
| 20260507052537 | 7 | 0.0 | 0.0 | 0.03 | 0.25 | 0.18 | 99 | ||
| 20260507051515 | 7 | 0.0 | 0.0 | 0.03 | 0.25 | 0.18 | 99 | ||
| 20260507050515 | 7 | 0.0 | 0.0 | 0.00 | 0.23 | 0.15 | 99 | ||
| 20260507045536 | 7 | 0.0 | 0.0 | 0.00 | 0.23 | 0.15 | 99 | ||
| 20260507044516 | 7 | 0.0 | 0.0 | 0.00 | 0.23 | 0.15 | 99 | ||
| 20260507043537 | 7 | 0.0 | 0.0 | 0.00 | 0.23 | 0.15 | 99 | ||
| 20260507042537 | 7 | 0.0 | 0.0 | 0.00 | 0.23 | 0.15 | 99 | ||
| 20260507041517 | 7 | 0.0 | 0.0 | 0.00 | 0.23 | 0.15 | 99 | ||
| 20260507040516 | 7 | 22 | 0.0 | 3.2 | 0.00 | 0.23 | 0.15 | 99 | |
| 20260507035515 | 7 | 0.0 | 0.0 | 0.00 | 0.23 | 0.15 | 99 | ||
| 20260507034537 | 7 | 0.0 | 0.0 | 0.00 | 0.23 | 0.15 | 99 | ||
| 20260507033517 | 7 | 0.0 | 0.0 | 0.00 | 0.23 | 0.15 | 98 | ||
| 20260507032516 | 7 | 0.0 | 0.0 | 0.03 | 0.23 | 0.15 | 98 | ||
| 20260507031517 | 7 | 0.0 | 0.0 | 0.03 | 0.23 | 0.15 | 98 | ||
| 20260507030538 | 7 | 0.0 | 0.0 | 0.03 | 0.23 | 0.15 | 98 | ||
| 20260507025515 | 7 | 0.0 | 0.0 | 0.03 | 0.23 | 0.15 | 98 | ||
| 20260507024535 | 7 | 19 | 0.0 | 3.2 | 0.03 | 0.23 | 0.15 | 98 | |
| 20260507023516 | 7 | 0.0 | 0.0 | 0.03 | 0.23 | 0.15 | 98 | ||
| 20260507022516 | 7 | 0.0 | 0.0 | 0.00 | 0.23 | 0.15 | 98 | ||
| 20260507021516 | 7 | 0.0 | 0.0 | 0.00 | 0.23 | 0.15 | 98 | ||
| 20260507020517 | 7 | 0.0 | 0.0 | 0.03 | 0.23 | 0.15 | 98 | ||
| 20260507015518 | 7 | 0 | 0.0 | 4.8 | 0.03 | 0.23 | 0.15 | 98 | |
| 20260507014515 | 7 | 354 | 0.0 | 3.2 | 0.03 | 0.23 | 0.15 | 98 | |
| 20260507013515 | 7 | 0.0 | 0.0 | 0.05 | 0.23 | 0.15 | 98 | ||
| 20260507012536 | 7 | 0.0 | 0.0 | 0.05 | 0.23 | 0.15 | 98 | ||
| 20260507011516 | 7 | 0.0 | 0.0 | 0.05 | 0.23 | 0.15 | 98 | ||
| 20260507010516 | 7 | 0.0 | 0.0 | 0.05 | 0.20 | 0.13 | 98 | ||
| 20260507005517 | 7 | 0.0 | 0.0 | 0.05 | 0.20 | 0.13 | 98 | ||
| 20260507004517 | 7 | 0.0 | 0.0 | 0.05 | 0.20 | 0.13 | 98 | ||
| 20260507003555 | 7 | 0.0 | 0.0 | 0.05 | 0.18 | 0.10 | 98 | ||
| 20260507002515 | 7 | 0.0 | 0.0 | 0.05 | 0.18 | 0.10 | 98 | ||
| 20260507001516 | 7 | 0.0 | 0.0 | 0.05 | 0.15 | 0.08 | 97 | ||
| 20260507000517 | 7 | 0.0 | 0.0 | 0.05 | 0.15 | 0.08 | 97 | ||
| 20260506235516 | 7 | 0.0 | 0.0 | 0.08 | 0.15 | 0.08 | 97 | ||
| 20260506234517 | 7 | 0.0 | 0.0 | 0.05 | 0.15 | 0.05 | 96 | ||
| 20260506233517 | 7 | 0.0 | 0.0 | 0.05 | 0.13 | 0.05 | 96 | ||
| 20260506232535 | 7 | 0.0 | 0.0 | 0.05 | 0.13 | 0.05 | 96 | ||
| 20260506231515 | 7 | 0.0 | 0.0 | 0.05 | 0.13 | 0.05 | 95 | ||
| 20260506230515 | 7 | 0.0 | 0.0 | 0.03 | 0.10 | 0.03 | 95 | ||
| 20260506225516 | 7 | 0.0 | 0.0 | 0.00 | 0.08 | 0.00 | 93 | ||
| 20260506224516 | 7 | 344 | 0.0 | 1.6 | 0.00 | 0.08 | 0.00 | 93 | |
| 20260506223516 | 7 | 344 | 0.0 | 1.6 | 0.00 | 0.08 | 0.00 | 93 | |
| 20260506222517 | 7 | 0.0 | 0.0 | 0.00 | 0.08 | 0.00 | 94 | ||
| 20260506221515 | 7 | 0.0 | 0.0 | 0.00 | 0.08 | 0.00 | 94 | ||
| 20260506220515 | 7 | 0.0 | 0.0 | 0.00 | 0.08 | 0.00 | 94 | ||
| 20260506215515 | 7 | 343 | 0.0 | 1.6 | 0.00 | 0.08 | 0.08 | 94 | |
| 20260506214516 | 7 | 0.0 | 0.0 | 0.00 | 0.08 | 0.08 | 94 | ||
| 20260506213516 | 7 | 9 | 3.2 | 3.2 | 0.00 | 0.08 | 0.08 | 94 | |
| 20260506212517 | 7 | 6 | 1.6 | 3.2 | 0.00 | 0.08 | 0.08 | 94 | |
| 20260506211517 | 7 | 347 | 0.0 | 3.2 | 0.00 | 0.08 | 0.08 | 93 | |
| 20260506210515 | 7 | 7 | 1.6 | 3.2 | 0.00 | 0.08 | 0.08 | 92 | |
| 20260506205535 | 7 | 2 | 1.6 | 3.2 | 0.00 | 0.08 | 0.08 | 92 | |
| 20260506204515 | 7 | 357 | 1.6 | 4.8 | 0.00 | 0.08 | 0.08 | 91 | |
| 20260506203516 | 7 | 0.0 | 0.0 | 0.00 | 0.08 | 0.08 | 90 | ||
| 20260506202516 | 7 | 0.0 | 0.0 | 0.00 | 0.08 | 0.08 | 89 | ||
| 20260506201517 | 7 | 0.0 | 0.0 | 0.00 | 0.08 | 0.08 | 89 | ||
| 20260506200557 | 7 | 321 | 0.0 | 1.6 | 0.00 | 0.08 | 0.08 | 89 | |
| 20260506195536 | 8 | 0.0 | 0.0 | 0.00 | 0.08 | 0.08 | 89 | ||
| 20260506194515 | 8 | 331 | 0.0 | 1.6 | 0.00 | 0.08 | 0.08 | 89 | |
| 20260506193536 | 8 | 353 | 0.0 | 1.6 | 0.00 | 0.08 | 0.08 | 89 | |
| 20260506192516 | 8 | 333 | 0.0 | 1.6 | 0.00 | 0.08 | 0.08 | 90 | |
| 20260506191536 | 8 | 336 | 1.6 | 4.8 | 0.00 | 0.08 | 0.08 | 90 | |
| 20260506190516 | 8 | 318 | 0.0 | 1.6 | 0.00 | 0.08 | 0.08 | 90 | |
| 20260506185517 | 8 | 328 | 0.0 | 1.6 | 0.00 | 0.08 | 0.08 | 89 | |
| 20260506184558 | 8 | 328 | 0.0 | 1.6 | 0.00 | 0.08 | 0.08 | 89 | |
| 20260506183515 | 8 | 337 | 0.0 | 3.2 | 0.00 | 0.08 | 0.08 | 88 | |
| 20260506182516 | 8 | 331 | 0.0 | 3.2 | 0.00 | 0.08 | 0.08 | 88 | |
| 20260506181516 | 9 | 351 | 0.0 | 3.2 | 0.00 | 0.08 | 0.08 | 88 | |
| 20260506180516 | 8 | 323 | 0.0 | 4.8 | 0.00 | 0.08 | 0.08 | 89 | |
| 20260506175556 | 8 | 330 | 0.0 | 3.2 | 0.00 | 0.08 | 0.08 | 89 | |
| 20260506174517 | 9 | 335 | 0.0 | 4.8 | 0.00 | 0.08 | 0.08 | 89 | |
| 20260506173518 | 9 | 324 | 0.0 | 3.2 | 0.00 | 0.08 | 0.08 | 90 | |
| 20260506172535 | 9 | 9 | 0.0 | 1.6 | 0.00 | 0.08 | 0.08 | 91 |